Weather History for Canby, MN

Change the Weather History Date:

Wednesday, February 26, 2014

  Actual Average (KMML) Record (KMML)
Temperature  
Mean Temperature 10 °F -  
Max Temperature 24 °F 34 °F 56 °F (1976)
Min Temperature -4 °F 16 °F -8 °F (1963)
Degree Days  
Heating Degree Days 55    
Moisture  
Dew Point -2 °F    
Average Humidity 65    
Maximum Humidity 81    
Minimum Humidity 47    
Precipitation  
Precipitation 0.00 in - - ()
Sea Level Pressure  
Sea Level Pressure 29.99 in    
Wind  
Wind Speed 16 mph (WNW)    
Max Wind Speed 34 mph    
Max Gust Speed 45 mph    
Visibility 10 miles    
Events      
Averages and records for this station are not official NWS values.
T = Trace of Precipitation, MM = Missing Value Source: NWS Daily Summary

Daily Weather History Graph

Daily Weather History Graph

Search for Another Location

Airport:

Trip Planner

Search our weather history database for the weather conditions in past years. The results will help you decide how hot, cold, wet, or windy it might be!

Date:

Astronomy

Feb. 26, 2014 Rise Set
Actual Time 7:07 AM CST 6:08 PM CST
Civil Twilight 6:38 AM CST 6:38 PM CST
Nautical Twilight 6:04 AM CST 7:12 PM CST
Astronomical Twilight 5:30 AM CST 7:45 PM CST
Moon 5:00 AM CST (2/26) 3:20 PM CST (2/26)
Length of Visible Light 11h 59m
Length of Day
11h 01m
Waning Crescent, 10% of the Moon is Illuminated
Feb 26
Waning Crescent
Mar 1
New
Mar 8
First Quarter
Mar 16
Full
Mar 23
Last Quarter

Hourly Weather History & Observations

Time (CST) Temp. Windchill Dew Point Humidity Pressure Visibility Wind Dir Wind Speed Gust Speed Precip Events Conditions
12:15 AM -2.6 °F -20.3 °F -7.8 °F 78% 30.39 in 10.0 mi West 11.5 mph - N/A   Clear
12:34 AM -3.1 °F -20.1 °F -8.5 °F 78% 30.38 in 10.0 mi West 10.4 mph - N/A   Clear
12:55 AM -3.5 °F -20.5 °F -9.0 °F 77% 30.38 in 10.0 mi West 10.4 mph - N/A   Clear
1:14 AM -3.5 °F -22.3 °F -9.4 °F 76% 30.36 in 10.0 mi West 12.7 mph - N/A   Clear
1:35 AM -4.5 °F -19.7 °F -10.3 °F 76% 30.34 in 10.0 mi West 8.1 mph - N/A   Clear
1:55 AM -4.4 °F -19.5 °F -10.3 °F 76% 30.33 in 10.0 mi West 8.1 mph - N/A   Clear
2:15 AM -4.9 °F -18.8 °F -10.5 °F 77% 30.32 in 10.0 mi West 6.9 mph - N/A   Clear
2:34 AM -4.9 °F -15.6 °F -10.5 °F 77% 30.31 in 10.0 mi WSW 4.6 mph - N/A   Clear
2:55 AM -3.1 °F -15.2 °F -10.1 °F 72% 30.29 in 10.0 mi West 5.8 mph - N/A   Clear
3:14 AM -3.6 °F -20.7 °F -10.1 °F 74% 30.27 in 10.0 mi West 10.4 mph 16.1 mph N/A   Clear
3:35 AM -2.9 °F -22.4 °F -9.6 °F 73% 30.25 in 10.0 mi WSW 13.8 mph - N/A   Clear
3:54 AM -2.9 °F -16.5 °F -9.4 °F 74% 30.24 in 10.0 mi WSW 6.9 mph - N/A   Clear
4:15 AM -2.6 °F -18.4 °F -9.4 °F 73% 30.21 in 10.0 mi West 9.2 mph - N/A   Clear
4:35 AM -3.3 °F -15.4 °F -9.4 °F 75% 30.19 in 10.0 mi WSW 5.8 mph - N/A   Clear
4:55 AM -2.6 °F -18.4 °F -9.4 °F 73% 30.18 in 10.0 mi WSW 9.2 mph - N/A   Clear
5:15 AM -2.2 °F -18.0 °F -9.4 °F 71% 30.17 in 10.0 mi WSW 9.2 mph - N/A   Clear
5:34 AM -2.4 °F -22.4 °F -9.6 °F 71% 30.15 in 10.0 mi WSW 15.0 mph 21.9 mph N/A   Clear
5:55 AM -2.4 °F -22.4 °F -9.4 °F 72% 30.13 in 10.0 mi WSW 15.0 mph 20.7 mph N/A   Clear
6:14 AM -2.2 °F -21.5 °F -8.7 °F 74% 30.12 in 10.0 mi WSW 13.8 mph - N/A   Clear
6:35 AM -0.9 °F -19.9 °F -7.6 °F 73% 30.09 in 10.0 mi WSW 13.8 mph 19.6 mph N/A   Clear
6:54 AM 0.1 °F -18.5 °F -6.7 °F 73% 30.07 in 10.0 mi WSW 13.8 mph 18.4 mph N/A   Clear
7:14 AM 0.5 °F -16.5 °F -6.5 °F 72% 30.06 in 10.0 mi WSW 11.5 mph - N/A   Clear
7:35 AM 1.2 °F -15.6 °F -6.0 °F 72% 30.04 in 10.0 mi West 11.5 mph 18.4 mph N/A   Clear
7:54 AM 2.8 °F -13.5 °F -4.9 °F 70% 30.02 in 10.0 mi WSW 11.5 mph 19.6 mph N/A   Clear
8:14 AM 4.1 °F -16.4 °F -4.0 °F 69% 30.01 in 10.0 mi West 19.6 mph 25.3 mph N/A   Clear
8:35 AM 5.7 °F -15.7 °F -2.7 °F 68% 30.00 in 10.0 mi West 23.0 mph 28.8 mph N/A   Clear
8:55 AM 6.6 °F -12.6 °F -2.2 °F 67% 29.98 in 10.0 mi WSW 18.4 mph 27.6 mph N/A   Clear
9:14 AM 7.9 °F -13.3 °F -1.1 °F 67% 29.95 in 10.0 mi WSW 24.2 mph 29.9 mph N/A   Clear
9:35 AM 9.5 °F -11.1 °F -0.2 °F 65% 29.93 in 10.0 mi WSW 24.2 mph 31.1 mph N/A   Clear
9:54 AM 10.4 °F -8.6 °F 0.5 °F 64% 29.92 in 10.0 mi West 20.7 mph 31.1 mph N/A   Clear
10:14 AM 12.4 °F -7.6 °F 1.6 °F 62% 29.90 in 10.0 mi WSW 25.3 mph 31.1 mph N/A   Clear
10:34 AM 13.3 °F -5.3 °F 2.1 °F 61% 29.88 in 10.0 mi WSW 21.9 mph 29.9 mph N/A   Clear
10:54 AM 15.8 °F -3.1 °F 4.1 °F 60% 29.86 in 10.0 mi West 25.3 mph 31.1 mph N/A   Clear
11:15 AM 16.2 °F -3.6 °F 3.9 °F 59% 29.84 in 10.0 mi West 28.8 mph 38.0 mph N/A   Clear
11:34 AM 16.9 °F -1.9 °F 4.1 °F 57% 29.82 in 10.0 mi West 26.5 mph 39.1 mph N/A   Clear
11:55 AM 18.0 °F -0.8 °F 4.5 °F 56% 29.80 in 10.0 mi West 27.6 mph 38.0 mph N/A   Clear
12:15 PM 18.9 °F 0.7 °F 5.2 °F 55% 29.80 in 10.0 mi West 26.5 mph 34.5 mph N/A   Clear
12:34 PM 19.4 °F 1.4 °F 5.4 °F 55% 29.78 in 10.0 mi West 26.5 mph 35.7 mph N/A   Clear
12:54 PM 19.9 °F 1.5 °F 6.1 °F 55% 29.76 in 10.0 mi West 28.8 mph 40.3 mph N/A   Clear
1:14 PM 20.1 °F 1.2 °F 6.6 °F 56% 29.74 in 10.0 mi West 31.1 mph 39.1 mph N/A   Clear
1:35 PM 20.8 °F 2.5 °F 6.8 °F 55% 29.75 in 10.0 mi West 29.9 mph 40.3 mph N/A   Clear
1:55 PM 21.7 °F 5.2 °F 8.1 °F 56% 29.74 in 10.0 mi West 24.2 mph 36.8 mph N/A   Clear
2:14 PM 22.6 °F 5.8 °F 8.8 °F 55% 29.74 in 10.0 mi West 26.5 mph 44.9 mph N/A   Clear
2:34 PM 22.8 °F 6.3 °F 7.9 °F 53% 29.73 in 10.0 mi West 25.3 mph 41.4 mph N/A   Clear
2:55 PM 24.3 °F 6.1 °F 6.8 °F 47% 29.74 in 10.0 mi WNW 34.5 mph 44.9 mph N/A   Clear
3:14 PM 24.4 °F 6.8 °F 7.5 °F 49% 29.74 in 10.0 mi WNW 32.2 mph 39.1 mph N/A   Clear
3:34 PM 24.4 °F 7.1 °F 8.6 °F 51% 29.74 in 10.0 mi WNW 31.1 mph 40.3 mph N/A   Clear
3:55 PM 24.4 °F 7.9 °F 7.5 °F 49% 29.75 in 10.0 mi WNW 27.6 mph 40.3 mph N/A   Clear
4:15 PM 24.4 °F 7.9 °F 8.4 °F 51% 29.75 in 10.0 mi NW 27.6 mph 40.3 mph N/A   Clear
4:34 PM 23.7 °F 6.9 °F 7.5 °F 50% 29.76 in 10.0 mi NW 27.6 mph 36.8 mph N/A   Clear
4:55 PM 23.0 °F 6.6 °F 7.7 °F 52% 29.77 in 10.0 mi NW 25.3 mph 40.3 mph N/A   Scattered Clouds
5:15 PM 21.9 °F 3.9 °F 6.8 °F 52% 29.78 in 10.0 mi NW 29.9 mph 41.4 mph N/A   Scattered Clouds
5:35 PM 20.3 °F 2.0 °F 6.3 °F 55% 29.80 in 10.0 mi NW 28.8 mph 39.1 mph N/A   Scattered Clouds
5:55 PM 19.2 °F 1.9 °F 8.8 °F 64% 29.82 in 10.0 mi NW 24.2 mph 32.2 mph N/A   Scattered Clouds
6:14 PM 17.6 °F 2.2 °F 9.1 °F 69% 29.83 in 10.0 mi NNW 17.3 mph 25.3 mph N/A   Scattered Clouds
6:34 PM 15.8 °F -1.9 °F 3.4 °F 58% 29.85 in 10.0 mi NNW 21.9 mph 33.4 mph N/A   Scattered Clouds
6:55 PM 14.4 °F -2.0 °F 3.4 °F 62% 29.87 in 10.0 mi NNW 17.3 mph 25.3 mph N/A   Clear
7:14 PM 13.1 °F -5.1 °F 2.7 °F 63% 29.89 in 10.0 mi NNW 20.7 mph 25.3 mph N/A   Clear
7:35 PM 12.4 °F -4.6 °F 1.2 °F 61% 29.90 in 10.0 mi NNW 17.3 mph 21.9 mph N/A   Clear
7:54 PM 11.7 °F -6.5 °F 1.8 °F 65% 29.91 in 10.0 mi NNW 19.6 mph 32.2 mph N/A   Clear
8:15 PM 10.8 °F -7.7 °F 0.5 °F 63% 29.92 in 10.0 mi NNW 19.6 mph 23.0 mph N/A   Clear
8:34 PM 9.9 °F -8.9 °F 0.5 °F 66% 29.95 in 7.0 mi North 19.6 mph 31.1 mph N/A   Scattered Clouds
8:55 PM 6.6 °F -9.5 °F 1.9 °F 81% 29.97 in 10.0 mi North 12.7 mph 24.2 mph N/A   Mostly Cloudy
9:14 PM 5.9 °F -11.8 °F 0.5 °F 78% 29.99 in 10.0 mi NNW 15.0 mph 21.9 mph N/A   Scattered Clouds
9:34 PM 5.2 °F -13.9 °F -1.5 °F 74% 29.99 in 10.0 mi NNW 17.3 mph 24.2 mph N/A   Clear
9:55 PM 4.5 °F -13.7 °F -4.0 °F 68% 30.01 in 10.0 mi North 15.0 mph 26.5 mph N/A   Clear
10:15 PM 3.2 °F -17.6 °F -5.6 °F 67% 30.01 in 10.0 mi North 19.6 mph 28.8 mph N/A   Clear
10:34 PM 2.3 °F -19.3 °F -8.5 °F 61% 30.03 in 10.0 mi NNW 20.7 mph 26.5 mph N/A   Clear
10:54 PM 1.4 °F -21.9 °F -9.0 °F 62% 30.03 in 10.0 mi North 24.2 mph 33.4 mph N/A   Clear
11:14 PM 0.3 °F -18.3 °F -10.7 °F 60% 30.05 in 10.0 mi NNW 13.8 mph 27.6 mph N/A   Clear
11:35 PM -0.9 °F -22.4 °F -11.4 °F 61% 30.06 in 10.0 mi North 18.4 mph 24.2 mph N/A   Clear
11:54 PM -1.8 °F -21.7 °F -13.0 °F 59% 30.07 in 10.0 mi NNW 15.0 mph 25.3 mph N/A   Clear